sat.trackr.live / text

‹ back to catalog

ONEWEB-0642

NORAD 55806 · 2023-029L

PAYLOAD ACTIVE UNKNOWN

§ Identity

Operator
Country
UK
Launch date
2023-03-09
Launch site
AFETR
Launch vehicle
Mass (kg)
RCS (m²)

Purposes: comms

External: N2YO · Heavens-Above · Gunter

§ Orbital elements

Epoch: 2026-05-24T23:22:45.054048Z

Period
109.11 min
Inclination
87.9151°
Eccentricity
0.0000981
Mean motion
13.19725488 rev/d
Perigee alt
1,185.0 km
Apogee alt
1,186.5 km
Semi-major
7,563.9 km
B*
-5.5981e-5
RAAN
309.6048°
Arg perigee
84.7030°
Mean anomaly
275.4215°
Rev number
15,584

§ Raw data

ONEWEB-06421 55806U 23029L   26144.97413257 -.00000009  00000+0 -55981-4 0  99972 55806  87.9151 309.6048 0000981  84.7030 275.4215 13.19725488155844

JSON: /api/v1/satellites/55806 · /tle

For live sub-satellite position, see the globe view (requires WebGL).

§ Visibility from observer

Set your observer location to see the next 7 days of passes ≥ 10°. The values pass through the URL so the page stays shareable.

No JS? Fill the form by hand. The geolocation button needs JavaScript.